ENGINEERING TRACK TESTING
Weather & Rail Temperature Monitoring
Weather station PHILA
Zoo Interlocking (Philadelphia, PA)
Measurement History
![]() ENGINEERING TRACK TESTING Weather station PHILA Zoo Interlocking (Philadelphia, PA) Measurement History ![]() |
Conditions for past 24 hours (since 09/01/2026 01:30 AM)
| Time | Berry Track N rail | Berry Track N rail (B) | Berry Track S rail | Berry Track S rail (B) | Outside Air Temperature |
Solar Radiation |
Max. Wind | Humidity | Air Pressure | Rain | |
| Speed | Dir | ||||||||||
| 09/02/2026 01:15 AM | 73 °F | 67 °F | 72 °F | 76 °F | 73.9 °F | 0 watt/m2 | 0 mph | --- | 88 % | 30.564 in Hg | 0 in |
| 09/02/2026 01:00 AM | 73 °F | 67 °F | 72 °F | 76 °F | 74 °F | 0 watt/m2 | 0 mph | --- | 88 % | 30.566 in Hg | 0 in |
| 09/02/2026 12:45 AM | 73 °F | 67 °F | 72 °F | 76 °F | 74.2 °F | 0 watt/m2 | 0 mph | --- | 88 % | 30.57 in Hg | 0 in |
| 09/02/2026 12:30 AM | 73 °F | 68 °F | 72 °F | 76 °F | 74.4 °F | 0 watt/m2 | 0 mph | --- | 88 % | 30.568 in Hg | 0 in |
| 09/02/2026 12:15 AM | 73 °F | 67 °F | 72 °F | 76 °F | 74.3 °F | 0 watt/m2 | 0 mph | --- | 88 % | 30.562 in Hg | 0 in |
| 09/02/2026 12:00 AM | 73 °F | 67 °F | 72 °F | 76 °F | 74.3 °F | 0 watt/m2 | 0 mph | --- | 88 % | 30.553 in Hg | 0 in |
| 09/01/2026 11:45 PM | 73 °F | 67 °F | 72 °F | 76 °F | 74.4 °F | 0 watt/m2 | 0 mph | --- | 88 % | 30.547 in Hg | 0 in |
| 09/01/2026 11:30 PM | 73 °F | 68 °F | 72 °F | 76 °F | 74.5 °F | 0 watt/m2 | 0 mph | --- | 88 % | 30.548 in Hg | 0 in |
| 09/01/2026 11:15 PM | 74 °F | 68 °F | 72 °F | 77 °F | 74.9 °F | 0 watt/m2 | 0 mph | --- | 88 % | 30.547 in Hg | 0 in |
| 09/01/2026 11:00 PM | 74 °F | 68 °F | 72 °F | 77 °F | 74.9 °F | 0 watt/m2 | 0 mph | --- | 88 % | 30.526 in Hg | 0 in |
| 09/01/2026 10:45 PM | 74 °F | 68 °F | 72 °F | 77 °F | 75 °F | 0 watt/m2 | 0 mph | --- | 88 % | 30.518 in Hg | 0 in |
| 09/01/2026 10:30 PM | 74 °F | 68 °F | 72 °F | 77 °F | 74.9 °F | 0 watt/m2 | 0 mph | --- | 88 % | 30.525 in Hg | 0 in |
| 09/01/2026 10:15 PM | 74 °F | 67 °F | 73 °F | 77 °F | 74.9 °F | 0 watt/m2 | 0 mph | --- | 88 % | 30.539 in Hg | 0 in |
| 09/01/2026 10:00 PM | 74 °F | 68 °F | 73 °F | 77 °F | 75.1 °F | 0 watt/m2 | 0 mph | --- | 88 % | 30.533 in Hg | 0 in |
| 09/01/2026 09:45 PM | 74 °F | 68 °F | 73 °F | 77 °F | 75.3 °F | 0 watt/m2 | 0 mph | --- | 87 % | 30.534 in Hg | 0 in |
| 09/01/2026 09:30 PM | 74 °F | 68 °F | 73 °F | 77 °F | 75.7 °F | 0 watt/m2 | 0 mph | --- | 87 % | 30.494 in Hg | 0 in |
| 09/01/2026 09:15 PM | 74 °F | 68 °F | 73 °F | 77 °F | 75.8 °F | 0 watt/m2 | 0 mph | --- | 87 % | 30.493 in Hg | 0 in |
| 09/01/2026 09:00 PM | 74 °F | 68 °F | 73 °F | 77 °F | 75.6 °F | 0 watt/m2 | 0 mph | --- | 86 % | 30.472 in Hg | 0 in |
| 09/01/2026 08:45 PM | 75 °F | 69 °F | 74 °F | 78 °F | 76.5 °F | 0 watt/m2 | 0 mph | --- | 84 % | 30.474 in Hg | 0 in |
| 09/01/2026 08:30 PM | 76 °F | 70 °F | 76 °F | 80 °F | 80 °F | 0 watt/m2 | 0 mph | --- | 80 % | 30.466 in Hg | 0 in |
| 09/01/2026 08:15 PM | 78 °F | 72 °F | 78 °F | 82 °F | 82 °F | 0 watt/m2 | 0 mph | --- | 71 % | 30.44 in Hg | 0 in |
| 09/01/2026 08:00 PM | 91 °F | 82 °F | 90 °F | 94 °F | 89.2 °F | 0 watt/m2 | 0 mph | --- | 72 % | 30.461 in Hg | 0 in |
| 09/01/2026 07:45 PM | 91 °F | 83 °F | 91 °F | 95 °F | 89.4 °F | 0 watt/m2 | 0 mph | --- | 70 % | 30.433 in Hg | 0 in |
| 09/01/2026 07:30 PM | 92 °F | 83 °F | 91 °F | 96 °F | 89.7 °F | 0 watt/m2 | 0 mph | --- | 69 % | 30.429 in Hg | 0 in |
| 09/01/2026 07:15 PM | 93 °F | 85 °F | 93 °F | 97 °F | 89.9 °F | 6 watt/m2 | 0 mph | --- | 69 % | 30.445 in Hg | 0 in |
| 09/01/2026 07:00 PM | 94 °F | 85 °F | 94 °F | 98 °F | 90.1 °F | 16 watt/m2 | 0 mph | --- | 68 % | 30.431 in Hg | 0 in |
| 09/01/2026 06:45 PM | 96 °F | 87 °F | 95 °F | 99 °F | 90.4 °F | 30 watt/m2 | 0 mph | --- | 68 % | 30.432 in Hg | 0 in |
| 09/01/2026 06:30 PM | 97 °F | 89 °F | 97 °F | 101 °F | 90.8 °F | 66 watt/m2 | 0 mph | --- | 67 % | 30.443 in Hg | 0 in |
| 09/01/2026 06:15 PM | 100 °F | 91 °F | 99 °F | 104 °F | 91.3 °F | 114 watt/m2 | 0 mph | --- | 66 % | 30.437 in Hg | 0 in |
| 09/01/2026 06:00 PM | 101 °F | 92 °F | 101 °F | 105 °F | 91.5 °F | 126 watt/m2 | 0 mph | --- | 65 % | 30.435 in Hg | 0 in |
| 09/01/2026 05:45 PM | 103 °F | 94 °F | 103 °F | 108 °F | 91.9 °F | 146 watt/m2 | 0 mph | --- | 65 % | 30.446 in Hg | 0 in |
| 09/01/2026 05:30 PM | 103 °F | 95 °F | 103 °F | 109 °F | 92.3 °F | 327 watt/m2 | 0 mph | --- | 65 % | 30.45 in Hg | 0 in |
| 09/01/2026 05:15 PM | 102 °F | 94 °F | 102 °F | 108 °F | 92.4 °F | 380 watt/m2 | 0 mph | --- | 65 % | 30.442 in Hg | 0 in |
| 09/01/2026 05:00 PM | 101 °F | 93 °F | 102 °F | 107 °F | 92.3 °F | 435 watt/m2 | 0 mph | --- | 65 % | 30.444 in Hg | 0 in |
| 09/01/2026 04:45 PM | 100 °F | 91 °F | 100 °F | 105 °F | 91.9 °F | 221 watt/m2 | 0 mph | --- | 64 % | 30.451 in Hg | 0 in |
| 09/01/2026 04:30 PM | 100 °F | 92 °F | 102 °F | 107 °F | 92.3 °F | 371 watt/m2 | 0 mph | --- | 64 % | 30.454 in Hg | 0 in |
| 09/01/2026 04:15 PM | 101 °F | 92 °F | 103 °F | 107 °F | 92 °F | 359 watt/m2 | 0 mph | --- | 63 % | 30.455 in Hg | 0 in |
| 09/01/2026 04:00 PM | 103 °F | 93 °F | 105 °F | 109 °F | 92.3 °F | 428 watt/m2 | 0 mph | --- | 63 % | 30.459 in Hg | 0 in |
| 09/01/2026 03:45 PM | 104 °F | 94 °F | 108 °F | 111 °F | 92.7 °F | 587 watt/m2 | 0 mph | --- | 62 % | 30.459 in Hg | 0 in |
| 09/01/2026 03:30 PM | 107 °F | 96 °F | 110 °F | 114 °F | 92.7 °F | 661 watt/m2 | 0 mph | --- | 62 % | 30.464 in Hg | 0 in |
| 09/01/2026 03:15 PM | 109 °F | 98 °F | 113 °F | 116 °F | 92.7 °F | 701 watt/m2 | 0 mph | --- | 64 % | 30.468 in Hg | 0 in |
| 09/01/2026 03:00 PM | 111 °F | 100 °F | 111 °F | 115 °F | 91.7 °F | 704 watt/m2 | 0 mph | --- | 66 % | 30.467 in Hg | 0 in |
| 09/01/2026 02:45 PM | 111 °F | 99 °F | 109 °F | 113 °F | 91.4 °F | 724 watt/m2 | 0 mph | --- | 66 % | 30.477 in Hg | 0 in |
| 09/01/2026 02:30 PM | 109 °F | 97 °F | 107 °F | 110 °F | 90.2 °F | 752 watt/m2 | 0 mph | --- | 67 % | 30.479 in Hg | 0 in |
| 09/01/2026 02:15 PM | 107 °F | 95 °F | 104 °F | 109 °F | 90.1 °F | 761 watt/m2 | 0 mph | --- | 68 % | 30.482 in Hg | 0 in |
| 09/01/2026 02:00 PM | 103 °F | 92 °F | 101 °F | 105 °F | 89.6 °F | 783 watt/m2 | 0 mph | --- | 69 % | 30.485 in Hg | 0 in |
| 09/01/2026 01:45 PM | 100 °F | 89 °F | 98 °F | 102 °F | 87.8 °F | 806 watt/m2 | 0 mph | --- | 70 % | 30.493 in Hg | 0 in |
| 09/01/2026 01:30 PM | 96 °F | 86 °F | 94 °F | 98 °F | 86.6 °F | 617 watt/m2 | 0 mph | --- | 73 % | 30.497 in Hg | 0 in |
| 09/01/2026 01:15 PM | 93 °F | 83 °F | 92 °F | 96 °F | 85 °F | 406 watt/m2 | 0 mph | --- | 74 % | 30.5 in Hg | 0 in |
| 09/01/2026 01:00 PM | 91 °F | 82 °F | 90 °F | 94 °F | 84.3 °F | 315 watt/m2 | 0 mph | --- | 77 % | 30.506 in Hg | 0 in |
| 09/01/2026 12:45 PM | 91 °F | 82 °F | 90 °F | 93 °F | 84 °F | 137 watt/m2 | 0 mph | --- | 78 % | 30.52 in Hg | 0 in |
| 09/01/2026 12:30 PM | 92 °F | 82 °F | 90 °F | 94 °F | 83.7 °F | 199 watt/m2 | 0 mph | --- | 77 % | 30.525 in Hg | 0 in |
| 09/01/2026 12:15 PM | 91 °F | 82 °F | 90 °F | 94 °F | 83.5 °F | 211 watt/m2 | 0 mph | --- | 77 % | 30.528 in Hg | 0 in |
| 09/01/2026 12:00 PM | 91 °F | 82 °F | 90 °F | 94 °F | 83.2 °F | 238 watt/m2 | 0 mph | --- | 78 % | 30.52 in Hg | 0 in |
| 09/01/2026 11:45 AM | 91 °F | 82 °F | 90 °F | 93 °F | 82.8 °F | 185 watt/m2 | 0 mph | --- | 77 % | 30.528 in Hg | 0 in |
| 09/01/2026 11:30 AM | 91 °F | 82 °F | 89 °F | 93 °F | 82.7 °F | 172 watt/m2 | 0 mph | --- | 79 % | 30.527 in Hg | 0 in |
| 09/01/2026 11:15 AM | 90 °F | 81 °F | 89 °F | 93 °F | 82 °F | 330 watt/m2 | 0 mph | --- | 81 % | 30.533 in Hg | 0 in |
| 09/01/2026 11:00 AM | 89 °F | 80 °F | 87 °F | 91 °F | 81.2 °F | 289 watt/m2 | 0 mph | --- | 81 % | 30.537 in Hg | 0 in |
| 09/01/2026 10:45 AM | 87 °F | 79 °F | 86 °F | 90 °F | 80.7 °F | 222 watt/m2 | 0 mph | --- | 82 % | 30.535 in Hg | 0 in |
| 09/01/2026 10:30 AM | 87 °F | 78 °F | 85 °F | 89 °F | 80.3 °F | 284 watt/m2 | 0 mph | --- | 83 % | 30.537 in Hg | 0 in |
| 09/01/2026 10:15 AM | 86 °F | 78 °F | 84 °F | 88 °F | 79.9 °F | 213 watt/m2 | 0 mph | --- | 84 % | 30.534 in Hg | 0 in |
| 09/01/2026 10:00 AM | 86 °F | 77 °F | 84 °F | 88 °F | 79.6 °F | 140 watt/m2 | 0 mph | --- | 84 % | 30.529 in Hg | 0 in |
| 09/01/2026 09:45 AM | 87 °F | 78 °F | 84 °F | 89 °F | 79.8 °F | 88 watt/m2 | 0 mph | --- | 85 % | 30.53 in Hg | 0 in |
| 09/01/2026 09:30 AM | 87 °F | 78 °F | 85 °F | 90 °F | 79.4 °F | 116 watt/m2 | 0 mph | --- | 85 % | 30.529 in Hg | 0 in |
| 09/01/2026 09:15 AM | 88 °F | 79 °F | 86 °F | 91 °F | 78.9 °F | 150 watt/m2 | 0 mph | --- | 86 % | 30.529 in Hg | 0 in |
| 09/01/2026 09:00 AM | 88 °F | 79 °F | 86 °F | 91 °F | 78.1 °F | 316 watt/m2 | 0 mph | --- | 87 % | 30.536 in Hg | 0 in |
| 09/01/2026 08:45 AM | 86 °F | 78 °F | 83 °F | 89 °F | 76.9 °F | 353 watt/m2 | 0 mph | --- | 88 % | 30.536 in Hg | 0 in |
| 09/01/2026 08:30 AM | 82 °F | 76 °F | 79 °F | 86 °F | 75.7 °F | 248 watt/m2 | 0 mph | --- | 88 % | 30.544 in Hg | 0 in |
| 09/01/2026 08:15 AM | 79 °F | 73 °F | 78 °F | 83 °F | 75 °F | 193 watt/m2 | 0 mph | --- | 88 % | 30.54 in Hg | 0 in |
| 09/01/2026 08:00 AM | 78 °F | 71 °F | 76 °F | 80 °F | 74.6 °F | 120 watt/m2 | 0 mph | --- | 88 % | 30.546 in Hg | 0 in |
| 09/01/2026 07:45 AM | 76 °F | 69 °F | 74 °F | 78 °F | 74.2 °F | 87 watt/m2 | 0 mph | --- | 88 % | 30.546 in Hg | 0 in |
| 09/01/2026 07:30 AM | 75 °F | 68 °F | 73 °F | 78 °F | 73.9 °F | 40 watt/m2 | 0 mph | --- | 88 % | 30.547 in Hg | 0 in |
| 09/01/2026 07:15 AM | 74 °F | 68 °F | 73 °F | 77 °F | 73.8 °F | 32 watt/m2 | 0 mph | --- | 88 % | 30.547 in Hg | 0 in |
| 09/01/2026 07:00 AM | 74 °F | 68 °F | 73 °F | 77 °F | 73.7 °F | 18 watt/m2 | 0 mph | --- | 88 % | 30.549 in Hg | 0 in |
| 09/01/2026 06:45 AM | 74 °F | 68 °F | 73 °F | 77 °F | 73.7 °F | 4 watt/m2 | 0 mph | --- | 88 % | 30.544 in Hg | 0 in |
| 09/01/2026 06:30 AM | 74 °F | 68 °F | 73 °F | 77 °F | 73.8 °F | 0 watt/m2 | 0 mph | --- | 88 % | 30.547 in Hg | 0 in |
| 09/01/2026 06:15 AM | 74 °F | 68 °F | 72 °F | 77 °F | 73.8 °F | 0 watt/m2 | 0 mph | --- | 88 % | 30.544 in Hg | 0 in |
| 09/01/2026 06:00 AM | 74 °F | 68 °F | 72 °F | 77 °F | 73.8 °F | 0 watt/m2 | 0 mph | --- | 88 % | 30.543 in Hg | 0 in |
| 09/01/2026 05:45 AM | 74 °F | 67 °F | 72 °F | 77 °F | 73.8 °F | 0 watt/m2 | 0 mph | --- | 88 % | 30.539 in Hg | 0 in |
| 09/01/2026 05:30 AM | 74 °F | 67 °F | 72 °F | 77 °F | 73.9 °F | 0 watt/m2 | 0 mph | --- | 88 % | 30.537 in Hg | 0 in |
| 09/01/2026 05:15 AM | 74 °F | 67 °F | 72 °F | 77 °F | 73.9 °F | 0 watt/m2 | 0 mph | --- | 88 % | 30.544 in Hg | 0 in |
| 09/01/2026 05:00 AM | 73 °F | 67 °F | 72 °F | 76 °F | 73.9 °F | 0 watt/m2 | 0 mph | --- | 88 % | 30.553 in Hg | 0 in |
| 09/01/2026 04:45 AM | 73 °F | 67 °F | 72 °F | 76 °F | 74 °F | 0 watt/m2 | 0 mph | --- | 88 % | 30.55 in Hg | 0 in |
| 09/01/2026 04:30 AM | 73 °F | 67 °F | 72 °F | 76 °F | 74 °F | 0 watt/m2 | 0 mph | --- | 88 % | 30.552 in Hg | 0 in |
| 09/01/2026 04:15 AM | 73 °F | 67 °F | 72 °F | 76 °F | 74 °F | 0 watt/m2 | 0 mph | --- | 88 % | 30.551 in Hg | 0 in |
| 09/01/2026 04:00 AM | 73 °F | 67 °F | 72 °F | 76 °F | 74.1 °F | 0 watt/m2 | 0 mph | --- | 88 % | 30.549 in Hg | 0 in |
| 09/01/2026 03:45 AM | 73 °F | 67 °F | 72 °F | 76 °F | 74.2 °F | 0 watt/m2 | 0 mph | --- | 88 % | 30.552 in Hg | 0 in |
| 09/01/2026 03:30 AM | 73 °F | 67 °F | 72 °F | 76 °F | 74.2 °F | 0 watt/m2 | 0 mph | --- | 88 % | 30.55 in Hg | 0 in |
| 09/01/2026 03:15 AM | 73 °F | 67 °F | 72 °F | 76 °F | 74.3 °F | 0 watt/m2 | 0 mph | --- | 88 % | 30.552 in Hg | 0 in |
| 09/01/2026 03:00 AM | 73 °F | 67 °F | 72 °F | 76 °F | 74.3 °F | 0 watt/m2 | 0 mph | --- | 88 % | 30.558 in Hg | 0 in |
| 09/01/2026 02:45 AM | 73 °F | 67 °F | 72 °F | 77 °F | 74.2 °F | 0 watt/m2 | 0 mph | --- | 88 % | 30.559 in Hg | 0 in |
| 09/01/2026 02:30 AM | 74 °F | 67 °F | 73 °F | 77 °F | 74.2 °F | 0 watt/m2 | 0 mph | --- | 88 % | 30.563 in Hg | 0 in |
| 09/01/2026 02:15 AM | 74 °F | 68 °F | 73 °F | 77 °F | 74.4 °F | 0 watt/m2 | 0 mph | --- | 87 % | 30.569 in Hg | 0 in |
| 09/01/2026 02:00 AM | 74 °F | 68 °F | 73 °F | 78 °F | 74.7 °F | 0 watt/m2 | 0 mph | --- | 87 % | 30.571 in Hg | 0 in |
| 09/01/2026 01:45 AM | 75 °F | 69 °F | 74 °F | 78 °F | 74.9 °F | 0 watt/m2 | 0 mph | --- | 87 % | 30.572 in Hg | 0 in |